Weather History for PABR - May, 2014

Change the Weather History Date:

Wednesday, May 7, 2014

  Actual Average Record
Temperature  
Mean Temperature 21 °F 16 °F  
Max Temperature 26 °F 21 °F 38 °F (1981)
Min Temperature 16 °F 11 °F -12 °F (1944)
Degree Days  
Heating Degree Days 44 49  
Month to date heating degree days 262 356  
Since 1 July heating degree days 15917 17503  
Cooling Degree Days 0    
Month to date cooling degree days 0  
Year to date cooling degree days 0  
Moisture  
Dew Point 19 °F    
Average Humidity 0    
Maximum Humidity 0    
Minimum Humidity 0    
Precipitation  
Precipitation T in 0.00 in 0.08 in (1963)
Month to date precipitation 0.07 0.03  
Year to date precipitation 0.79 0.55  
Snow  
Snow T in 0.10 in 2.30 in (2007)
Month to date snowfall 0.2 0.7  
Since 1 July snowfall 48.4 35.0  
Snow Depth 3.00 in    
Sea Level Pressure  
Sea Level Pressure 29.88 in    
Wind  
Wind Speed 10 mph (WSW)    
Max Wind Speed 14 mph    
Max Gust Speed 17 mph    
Visibility 10 miles    
Events Snow    
T = Trace of Precipitation, MM = Missing Value Source: NWS Daily Summary

Daily Weather History Graph

Daily Weather History Graph

Search for Another Location

Airport or City:

Trip Planner

Search our weather history database for the weather conditions in past years. The results will help you decide how hot, cold, wet, or windy it might be!

Date:

Astronomy

May. 07, 2014 Rise Set
Actual Time 3:42 AM AKDT 1:15 AM AKDT
Civil Twilight Sun does not rise Sun does not rise
Nautical Twilight Sun does not rise Sun does not rise
Astronomical Twilight Sun does not rise Sun does not rise
Moon 1:24 PM AKDT (5/7) 4:55 AM AKDT (5/7)
Length of Visible Light 24h 00m
Length of Day
21h 33m
First Quarter, 57% of the Moon is Illuminated
May 7
First Quarter
May 14
Full
May 21
Last Quarter
May 28
New
Jun 5
First Quarter

Hourly Weather History & Observations

Time (AKDT) Temp. Windchill Dew Point Humidity Pressure Visibility Wind Dir Wind Speed Gust Speed Precip Events Conditions
12:53 AM 19.9 °F 11.1 °F 16.0 °F 85% 29.79 in 10.0 mi WNW 6.9 mph - N/A   Partly Cloudy
1:53 AM 19.9 °F 9.3 °F 16.0 °F 85% 29.80 in 10.0 mi WNW 9.2 mph - N/A   Scattered Clouds
2:02 AM 19.9 °F 11.1 °F 17.1 °F 89% 29.79 in 10.0 mi West 6.9 mph - N/A   Mostly Cloudy
2:53 AM 21.0 °F 8.6 °F 18.0 °F 88% 29.80 in 10.0 mi West 12.7 mph - N/A   Overcast
3:38 AM 19.9 °F 8.6 °F 17.1 °F 89% 29.80 in 10.0 mi West 10.4 mph - N/A   Overcast
3:53 AM 19.9 °F 10.1 °F 17.1 °F 89% 29.81 in 10.0 mi West 8.1 mph - N/A   Overcast
4:53 AM 19.9 °F 10.1 °F 18.0 °F 92% 29.82 in 10.0 mi West 8.1 mph - N/A   Overcast
5:53 AM 19.9 °F 9.3 °F 18.0 °F 92% 29.83 in 10.0 mi WNW 9.2 mph - N/A   Overcast
6:53 AM 19.9 °F 11.1 °F 18.0 °F 92% 29.84 in 10.0 mi West 6.9 mph - N/A   Overcast
7:53 AM 19.9 °F 12.1 °F 19.0 °F 96% 29.85 in 10.0 mi West 5.8 mph - N/A   Overcast
8:53 AM 21.0 °F 11.4 °F 19.0 °F 92% 29.86 in 10.0 mi West 8.1 mph - N/A   Overcast
9:53 AM 19.9 °F 10.1 °F 19.0 °F 96% 29.87 in 10.0 mi WSW 8.1 mph - N/A   Overcast
10:53 AM 21.0 °F 12.4 °F 19.9 °F 96% 29.87 in 10.0 mi WSW 6.9 mph - N/A   Overcast
11:04 AM 21.0 °F 11.4 °F 19.0 °F 92% 29.87 in 10.0 mi West 8.1 mph - N/A   Overcast
11:53 AM 21.9 °F 13.4 °F 19.0 °F 89% 29.88 in 10.0 mi SW 6.9 mph - N/A   Overcast
12:53 PM 21.9 °F 12.5 °F 19.9 °F 92% 29.89 in 10.0 mi SW 8.1 mph - N/A   Overcast
1:53 PM 23.0 °F 11.7 °F 21.0 °F 92% 29.90 in 10.0 mi SW 11.5 mph - N/A   Overcast
2:53 PM 23.0 °F 11.1 °F 21.0 °F 92% 29.90 in 10.0 mi SSW 12.7 mph - N/A   Overcast
3:53 PM 24.1 °F 13.7 °F 21.0 °F 88% 29.91 in 9.0 mi SSW 10.4 mph - 0.00 in Snow Light Snow
4:53 PM 25.0 °F 13.6 °F 21.9 °F 88% 29.91 in 9.0 mi SSW 12.7 mph - 0.00 in Snow Light Snow
5:53 PM 26.1 °F 15.6 °F 23.0 °F 88% 29.92 in 9.0 mi WSW 11.5 mph - 0.00 in Snow Light Snow
6:06 PM 26.1 °F 15.6 °F 21.9 °F 84% 29.92 in 9.0 mi SW 11.5 mph - 0.00 in Snow Light Snow
6:53 PM 26.1 °F 15.6 °F 21.9 °F 84% 29.93 in 9.0 mi SW 11.5 mph - 0.00 in Snow Light Snow
7:53 PM 25.0 °F 14.2 °F 21.9 °F 88% 29.94 in 10.0 mi SW 11.5 mph - 0.00 in   Scattered Clouds
8:53 PM 24.1 °F 13.1 °F 21.0 °F 88% 29.94 in 10.0 mi SSW 11.5 mph - N/A   Partly Cloudy
9:53 PM 21.9 °F 11.0 °F 19.9 °F 92% 29.95 in 10.0 mi SSW 10.4 mph - N/A   Partly Cloudy
10:53 PM 19.4 °F 7.9 °F 17.6 °F 93% 29.95 in 10.0 mi SSW 10.4 mph - N/A   Partly Cloudy
11:53 PM 18.0 °F 6.9 °F 16.0 °F 92% 29.96 in 10.0 mi SSW 9.2 mph - N/A   Partly Cloudy